GW4772 Weather Reports


time (UTC)temp
C
wind
direction
speed
KPH
gust
KPH
rain 1hr
cm
rain 24hr
cm
rain mn
cm
humidity
%
barometer
mb
20260504000045 22 0 1.6 6.4 0.00 0.00 0.00 38 1017.6
20260503234532 22 0 1.6 8.0 0.00 0.00 0.00 36 1017.5
20260503233035 23 5 8.0 14.5 0.00 0.00 0.00 35 1017.7
20260503231542 23 360 8.0 14.5 0.00 0.00 0.00 31 1017.8
20260503230036 23 5 6.4 19.3 0.00 0.00 0.00 33 1017.6
20260503224538 23 352 4.8 16.1 0.00 0.00 0.00 34 1017.7
20260503223031 23 332 4.8 19.3 0.00 0.00 0.00 34 1017.6
20260503221547 23 333 4.8 19.3 0.00 0.00 0.00 32 1017.4
20260503220035 24 44 4.8 14.5 0.00 0.00 0.00 35 1017.6
20260503214535 23 312 3.2 19.3 0.00 0.00 0.00 32 1017.6
20260503213035 23 327 4.8 25.7 0.00 0.00 0.00 34 1017.7
20260503211542 23 0 4.8 16.1 0.00 0.00 0.00 32 1017.9
20260503210048 24 333 6.4 20.9 0.00 0.00 0.00 33 1018.1
20260503204542 23 342 4.8 22.5 0.00 0.00 0.00 36 1018.4
20260503203037 24 304 8.0 22.5 0.00 0.00 0.00 34 1018.6
20260503201541 24 76 1.6 17.7 0.00 0.00 0.00 31 1018.7
20260503200045 24 0 4.8 19.3 0.00 0.00 0.00 32 1018.8
20260503194536 23 104 1.6 22.5 0.00 0.00 0.00 35 1019.2
20260503193035 23 325 9.7 20.9 0.00 0.00 0.00 33 1019.4
20260503191535 23 315 6.4 22.5 0.00 0.00 0.00 32 1019.6
20260503190043 23 352 12.9 24.1 0.00 0.00 0.00 35 1019.9
20260503184542 23 346 6.4 24.1 0.00 0.00 0.00 34 1020.0
20260503183037 23 319 11.3 22.5 0.00 0.00 0.00 31 1020.2
20260503181536 23 46 8.0 25.7 0.00 0.00 0.00 37 1020.2
20260503180035 23 82 8.0 19.3 0.00 0.00 0.00 38 1020.3
20260503174534 23 49 12.9 24.1 0.00 0.00 0.00 32 1020.5
20260503173108 22 302 9.7 17.7 0.00 0.00 0.00 32 1020.5
20260503171538 22 5 12.9 22.5 0.00 0.00 0.00 35 1020.8
20260503081550 7 0 0.0 0.0 0.00 0.48 0.00 90 1019.2
20260503071542 7 0 0.0 0.0 0.00 0.91 0.00 89 1019.0
20260503054539 9 0 0.0 0.0 0.00 1.27 0.00 84 1018.6
20260503053036 9 0 0.0 3.2 0.00 1.27 0.00 83 1018.6
20260503051537 9 0 0.0 0.0 0.00 1.27 0.00 83 1018.5
20260503050035 10 0 0.0 3.2 0.00 1.27 0.00 82 1018.4
20260503044542 9 0 0.0 1.6 0.00 1.30 1.27 83 1018.5
20260503043035 10 0 0.0 3.2 0.00 1.30 1.27 82 1018.5
20260503041539 10 0 0.0 1.6 0.00 1.30 1.27 83 1018.3
20260503040037 10 0 0.0 1.6 0.00 1.30 1.27 84 1018.3
20260503034535 10 0 0.0 1.6 0.00 1.60 1.27 81 1018.1
20260503033031 11 0 0.0 1.6 0.00 1.60 1.27 78 1018.0
20260503031547 11 0 0.0 4.8 0.00 1.60 1.27 77 1017.8
20260503030035 11 0 0.0 3.2 0.00 1.60 1.27 76 1017.7
20260503024536 11 0 0.0 0.0 0.00 2.11 1.27 79 1017.6
20260503023038 12 0 0.0 0.0 0.00 2.11 1.27 77 1017.5
20260503021540 12 0 0.0 3.2 0.00 2.11 1.27 74 1017.0
20260503020041 12 0 0.0 1.6 0.00 2.11 1.27 72 1016.7
20260503014536 13 0 0.0 0.0 0.00 2.49 1.27 67 1016.7
20260503013039 13 0 0.0 3.2 0.00 2.49 1.27 66 1016.6
20260503011534 13 0 0.0 1.6 0.00 2.49 1.27 68 1016.5
20260503010041 15 0 1.6 8.0 0.00 2.49 1.27 67 1016.3
20260503004536 16 0 0.0 6.4 0.00 2.64 1.27 61 1016.0
20260503003036 17 24 0.0 9.7 0.00 2.64 1.27 53 1015.6
20260503001543 18 0 3.2 11.3 0.00 2.64 1.27 48 1015.4